Preview of NWS' New Version of Forecast
This preview is not operational and should not be used for support decisions.

Regional Weather Roundup (RWR)

Issued by National Weather Service (NWS)

                            
000
ASUS44 KJAN 191410
RWRMS 

MISSISSIPPI HOURLY WEATHER ROUNDUP
NATIONAL WEATHER SERVICE JACKSON MS
800 AM CST TUE FEB 19 2019

NOTE: "FAIR: INDICATES FEW OR NO CLOUDS BELOW 12,000 FEET WITH NO
SIGNIFICANT WEATHER AND/OR OBSTRUCTIONS TO VISIBILITY.

MSZ001>002-007>008-010>013-018>021-025>028-034>036-191500-
NORTHWEST MISSISSIPPI
  
CITY           SKY/WX    TMP DP  RH WIND       PRES   REMARKS
BATESVILLE     FAIR      34  30  86 E8G14     30.36F WCI  27          
CLARKSDALE     MOSUNNY   36  32  87 NE10      30.39S WCI  28          
CLEVELAND      LGT RAIN  35  34  96 NE15      30.33F WCI  25          
GREENWOOD      HVY RAIN  36  34  92 E15       30.31F FOG     WCI  27  
GREENVILLE     RAIN      36  31  82 NE18      30.29F WCI  26          
OLIVE BRANCH   CLOUDY    32  25  74 NE12G18   30.40F WCI  23          
OXFORD         PTSUNNY   32  28  86 E8        30.40S WCI  25          
TUNICA           N/A     34  28  80 NE10      30.41R WCI  26          
WINONA         RAIN      35  34  98 NE12G17   30.34R WCI  27          
$$

MSZ003>006-009-014>017-022>024-029>033-037>039-191500-
NORTHEAST MISSISSIPPI
  
CITY           SKY/WX    TMP DP  RH WIND       PRES   REMARKS
ABERDEEN       RAIN      36  36 100 N12       30.38R WCI  27          
COLUMBUS AFB   CLOUDY    38  36  90 N9        30.33R WCI  32          
CORINTH        CLOUDY    34  25  69 E12       30.42F WCI  25          
GOLDN TRIANGLE CLOUDY    38  37  97 NE8       30.32F WCI  32          
STARKVILLE     CLOUDY    36  36 100 N8        30.32F WCI  29          
TUPELO         LGT RAIN  36  29  75 NE12      30.40S WCI  28          
$$

MSZ040-058-191500-
CENTRAL MISSISSIPPI
  
CITY           SKY/WX    TMP DP  RH WIND       PRES   REMARKS
JACKSON INTL   LGT RAIN  43  38  82 NE8       30.24R                  
JACKSON HAWKNS LGT RAIN  43  41  93 VRB5      30.25R                  
MADISON        CLOUDY    39  39 100 E3        30.24F                  
MERIDIAN KEY   LGT RAIN  44  39  82 NE12      30.26F                  
MERIDIAN NAS   CLOUDY    42  39  89 E12       30.27F                  
RAYMOND        LGT RAIN  43  43 100 VRB5      30.22S                  
VICKSBURG VKS  CLOUDY    43  41  93 NE8G15    30.24R FOG              
$$

MSZ059>079-191500-
SOUTH MISSISSIPPI
  
CITY           SKY/WX    TMP DP  RH WIND       PRES   REMARKS
HATTIESBURG    CLOUDY    49  39  68 NE8       30.21S                  
LAUREL         CLOUDY    44  38  79 E12G21    30.23S                  
MCCOMB         CLOUDY    50  35  56 E12G21    30.14F                  
NATCHEZ        LGT RAIN  43  41  93 N8        30.19R                  
PINE BELT      CLOUDY    46  39  76 NE13      30.21S                  
$$

MSZ080>082-191500-
COASTAL MISSISSIPPI
  
CITY           SKY/WX    TMP DP  RH WIND       PRES   REMARKS
BAY ST LOUIS   CLOUDY    55  37  50 NE9       30.17R                  
BILOXI         CLOUDY    57  37  47 E10       30.17R                  
PASCAGOULA     CLOUDY    59  37  44 E8        30.17S                  
GULFPORT       CLOUDY    57  37  47 E9        30.16R                  
$$

LAZ007>009-015>016-023>026-191500-
NORTHEAST LOUISIANA
  
CITY           SKY/WX    TMP DP  RH WIND       PRES   REMARKS
BASTROP        TSTM      36  35  98 NE8       30.28S WCI  29          
TALLULAH/VBURG LGT RAIN  41  38  89 N14       30.26F FOG              
VIDALIA        CLOUDY    43  40  91 N10       30.18R                  
$$